Location: Wildcat Hills Observatory
(41.6350°N, 103.6812°W)
Time: 08:18:33
(UTC-06:00)

USA 215 - Pass Details

Date: 23 June 2018
Orbit: 1100 x 1107 km, 123.0° (Epoch: 24 September)

Event Time Altitude Azimuth Distance (km) Brightness Sun altitude
Exits shadow 20:59:54 - 131° (SE) 3,347 5.1 -4.9°
Reaches altitude 10° 21:00:56 10° 131° (SE) 2,949 4.8 -5.1°
Maximum altitude 21:07:28 88° 220° (SW) 1,106 3.3 -6.1°
Drops below altitude 10° 21:14:02 10° 312° (NW) 2,963 7.4 -7.0°
Sets 21:16:31 0° 313° (NW) 3,923 8.8 -7.3°
